Kosmos-2425

operational
NORAD ID: 29671 Int'l Des: 2006-062 Owner: KVR/IACG Country: RU Constellation: GLONASS
MEOCIRCULAR

Über Kosmos-2425

Beschreibung wird geladen...

Live-Position

3D-Globus wird geladen...

Nächste Überflüge

Höhenverlauf

Altitude vs Time

uPlot chart will show altitude changes over time

Zweizeiliger Elementsatz

1 29671U 06062B 26035.23586389 .00000042 00000-0 00000-0 0 9995
2 29671 64.7006 198.9535 0021801 178.7000 182.5430 2.12963512148721
Epoch: 4. Feb. 2026 • Age: 69 hours

Aktueller Status

Höhe 19176.6 km
Geschwindigkeit 3.95 km/s
Subsatellitenpunkt 49.42°N, 49.58°E
Startdatum 25. Dez. 2006
Alter 19.1 years
Typ other

Technische Details

Klassifizierung Payload
Masse 1450.00 kg
Trockenmasse 1200.00 kg
Gesamtmasse 1450.00 kg
Länge 4.00 m
Durchmesser 1.50 m
Spannweite 7.80 m
Form Cyl + Ant + 2 Pan
Hersteller RESH
Bus-Typ Uragan
Phasenstatus In Orbit
Besitzer/Staat KVR/IACG/RU

Große Konstellationen

Loading constellations...